GFSMW_925_spd_186.txt.gz
Wind_Speed
18 14 20 23 26 30 31 33 32 31 30 27 26 23 21 18 16 14 13 12 10 9 8 8 7 7 6 6 5 4 6 7 3 3 4 4 3 4 4 6 8 12 11
17 11 17 24 29 32 34 34 33 32 31 27 24 22 21 18 17 16 14 12 11 10 9 9 8 8 7 7 7 5 2 6 8 2 3 4 5 4 1 4 7 12 9
12 10 12 20 25 31 35 35 34 33 31 28 25 22 20 19 17 17 15 12 11 9 8 8 8 9 8 7 7 6 6 4 6 10 4 2 1 3 3 2 5 11 8
11 10 10 17 24 28 29 32 33 33 30 29 28 29 26 23 19 18 15 14 11 10 9 9 8 8 8 9 7 6 6 5 5 4 8 7 5 2 2 2 3 12 9
14 11 10 12 19 23 27 30 32 33 33 33 28 29 24 21 22 19 20 15 13 11 10 9 8 8 8 9 8 7 7 6 7 6 5 5 4 6 3 3 6 9 8
13 12 7 6 11 17 22 27 32 32 32 32 30 30 28 26 24 21 18 16 13 11 10 9 9 8 9 9 9 8 7 8 7 7 7 6 3 4 3 3 9 9 6
11 10 9 3 4 9 16 21 26 28 27 28 26 25 23 25 25 23 18 15 13 11 10 9 9 8 9 10 8 9 8 7 7 7 6 6 6 4 3 5 7 7 9
8 7 4 4 4 9 15 20 21 22 23 23 23 20 22 22 22 19 16 14 12 11 12 12 11 9 8 10 9 7 8 7 8 8 6 5 5 5 3 4 6 6 7
7 8 6 3 2 5 10 16 21 20 22 23 24 26 25 24 22 21 19 16 15 13 11 13 11 8 9 9 9 8 8 7 8 6 5 5 4 4 4 5 5 5 5
4 4 4 2 0 4 7 12 17 20 22 26 27 27 26 25 23 20 18 16 15 15 14 12 10 8 9 8 9 8 7 6 7 5 5 4 3 3 3 5 4 4 4
2 2 2 1 3 6 8 11 15 20 22 27 28 29 25 21 20 20 19 16 15 14 14 11 9 8 7 7 9 10 7 7 7 4 5 5 4 3 4 4 5 8 7
2 1 2 3 8 10 11 13 17 20 21 25 26 26 26 23 22 20 17 14 13 12 12 10 9 8 7 7 9 9 7 7 5 4 4 4 4 5 5 5 8 8 8
5 3 4 5 8 13 17 18 17 20 22 22 23 23 22 21 20 19 18 15 14 13 11 11 8 9 9 7 8 8 7 7 5 5 5 6 6 5 7 8 8 10 11
9 7 6 5 11 15 19 20 20 20 22 23 22 21 21 21 21 20 18 16 14 14 12 10 9 9 9 7 8 8 7 6 6 6 6 5 6 7 9 9 10 12 13
10 9 9 12 15 16 17 19 23 21 25 22 21 25 24 24 23 21 18 16 15 13 11 11 10 9 8 6 8 9 8 6 6 5 4 4 5 6 8 8 10 12 12
7 10 12 12 16 21 21 21 20 24 25 25 26 26 25 23 22 19 18 17 14 13 12 10 9 9 7 7 12 9 7 7 5 4 2 1 6 6 5 6 8 9 11
4 5 10 13 17 23 25 25 26 27 29 30 26 24 24 24 23 22 19 16 15 15 13 12 11 10 8 8 9 11 6 6 5 3 3 3 5 6 8 9 9 9 9
6 5 6 12 18 20 24 24 27 29 29 29 27 24 24 24 23 21 20 18 15 14 13 12 11 9 8 7 7 11 6 5 5 4 3 3 6 7 9 11 11 11 12
8 7 9 12 16 22 26 28 27 28 29 29 29 29 27 26 23 21 19 17 16 14 14 13 12 10 9 6 8 6 6 4 4 2 1 1 6 9 10 10 11 12 13
5 8 9 9 10 16 25 28 26 29 28 30 30 31 30 26 23 20 18 16 15 16 14 13 12 11 9 6 6 6 4 3 2 1 1 7 6 9 10 9 10 13 15
6 4 3 4 1 10 20 20 22 24 28 31 33 32 28 24 22 20 18 17 17 16 15 13 12 12 10 7 6 5 4 3 2 2 2 3 8 8 9 8 8 12 16
3 3 0 4 6 12 16 17 20 25 31 34 31 26 25 24 22 20 19 19 17 16 16 15 13 10 9 8 5 4 7 4 3 1 3 5 8 7 8 6 10 12 11
5 4 3 5 7 12 16 19 22 30 32 30 26 25 24 22 21 21 21 19 18 16 15 15 13 12 10 8 6 4 4 1 2 2 5 8 8 8 6 9 9 10 11
6 6 6 8 8 13 15 19 27 29 27 26 26 25 24 22 21 19 19 18 18 17 16 15 14 13 11 9 7 4 3 3 3 6 6 8 7 9 10 10 10 10 11
9 9 10 10 11 13 16 21 25 26 26 25 25 23 21 21 21 18 17 16 15 16 17 16 15 14 12 10 8 7 4 1 4 5 5 6 7 8 9 10 10 11 12
11 12 12 13 15 16 18 21 24 26 27 25 23 22 22 21 20 19 16 11 13 14 14 15 13 10 10 11 9 5 4 3 5 3 5 7 8 9 10 11 13 13 14

GFSMW_925_spd_192.txt.gz
Wind_Speed
12 20 20 24 25 18 36 42 41 37 36 27 27 25 27 25 25 23 22 21 20 20 17 16 16 12 12 10 8 8 7 6 5 10 13 11 9 9 11 10 9 11 12
14 16 22 25 27 25 31 33 35 36 36 31 29 25 26 23 22 21 21 18 19 19 17 16 15 13 13 10 8 8 7 6 2 2 13 4 8 11 11 13 11 10 9
3 7 10 19 25 28 35 37 34 31 31 28 27 24 23 24 22 23 21 18 17 17 15 15 15 14 12 11 8 5 4 9 3 4 3 1 1 14 13 15 12 9 7
2 5 9 9 5 20 28 36 38 36 33 30 28 27 25 23 21 21 21 20 18 16 17 15 16 13 13 10 7 6 4 3 12 6 7 8 7 3 4 14 13 10 9
4 6 6 12 20 16 17 32 33 34 35 36 28 29 24 23 23 23 24 21 18 18 18 18 17 17 16 14 12 10 8 10 10 12 6 8 9 9 6 4 8 11 7
5 3 6 10 15 6 13 25 26 29 31 34 32 32 28 25 25 25 25 22 20 18 18 18 18 17 17 15 14 13 12 12 12 10 8 9 6 5 5 3 4 3 7
4 3 6 6 11 20 13 15 19 22 29 33 33 24 32 28 29 31 25 23 21 19 19 20 20 19 18 17 16 16 16 13 13 11 11 11 10 7 6 1 3 1 2
3 5 7 4 5 6 10 8 12 16 23 27 25 19 25 21 28 31 27 23 21 21 19 21 22 20 19 19 19 17 15 13 14 12 12 11 9 8 7 6 2 2 2
4 6 7 7 5 5 2 7 6 13 17 19 21 20 21 20 28 29 31 27 29 27 22 21 19 20 18 19 18 18 15 14 12 10 12 11 9 7 4 6 5 2 1
7 6 6 6 7 9 20 8 7 12 15 20 22 21 23 28 29 33 30 29 28 24 23 22 17 15 15 13 17 18 15 15 12 9 9 10 9 7 5 4 5 5 4
7 7 7 6 11 18 17 19 18 16 17 19 23 29 32 32 31 31 31 29 25 23 22 21 21 18 18 15 15 15 14 15 13 11 9 9 8 9 5 4 5 5 6
5 6 6 6 9 12 10 12 15 15 16 18 22 26 30 32 32 32 31 30 27 24 24 24 23 18 17 16 17 12 13 13 12 12 11 8 8 9 5 5 6 6 5
21 6 7 5 9 7 10 10 11 15 15 19 23 24 23 28 29 31 31 31 29 27 24 22 22 21 19 17 15 16 14 13 12 11 11 9 11 9 6 6 8 8 7
11 14 10 6 12 8 11 11 13 14 17 22 22 24 26 28 30 30 31 30 28 25 21 17 17 18 17 16 16 16 15 14 13 13 13 10 11 9 7 8 9 9 9
18 15 13 10 12 14 11 8 12 15 18 19 22 23 25 27 28 25 27 26 24 22 21 21 20 19 18 16 16 17 16 15 14 12 10 9 11 11 10 8 8 6 6
15 10 2 13 11 17 19 17 16 17 20 18 20 24 27 27 28 28 27 24 21 20 21 20 19 18 13 19 19 18 17 16 15 14 9 10 8 7 9 11 8 7 6
5 11 6 8 10 19 26 24 25 23 20 24 25 28 30 30 30 29 28 26 23 23 20 19 19 16 13 20 20 19 16 15 14 13 13 9 9 7 7 3 6 4 5
9 10 5 2 16 18 22 24 27 29 26 25 27 30 30 30 31 30 28 26 25 25 24 21 17 13 14 21 19 17 16 16 13 12 11 10 8 3 3 5 4 5 6
5 5 6 6 6 3 23 28 26 26 26 24 26 29 31 28 28 28 27 26 25 22 20 19 21 14 18 23 18 17 16 17 14 11 12 11 5 3 3 5 4 4 3
9 6 4 1 6 8 16 29 26 26 25 27 27 30 33 35 29 24 25 25 23 21 20 18 19 13 18 22 16 14 15 16 14 9 8 5 2 4 3 3 4 4 5
9 2 5 7 9 9 9 19 18 19 22 25 30 31 31 31 30 31 27 25 21 20 20 18 23 16 16 21 15 13 15 16 13 10 7 4 0 2 3 2 2 4 10
9 6 5 8 8 9 10 12 11 14 24 29 30 31 34 32 32 30 27 24 20 20 21 22 20 19 14 17 15 14 15 14 12 10 8 6 2 3 4 2 4 7 6
5 8 5 9 9 8 8 10 12 21 26 28 28 31 32 31 30 29 26 21 21 20 19 18 18 20 16 13 14 14 12 13 11 10 7 4 3 2 5 6 6 7 7
7 7 4 6 8 8 10 10 18 22 26 24 24 26 27 25 23 23 21 20 21 19 18 17 16 19 18 15 14 13 12 10 9 5 1 1 3 2 3 4 5 5 6
5 11 6 5 8 10 12 11 18 24 21 22 22 22 23 25 23 21 18 18 17 21 21 20 18 20 19 20 15 13 11 9 10 8 2 3 4 2 4 4 5 7 8
4 14 10 9 8 11 13 15 19 23 23 20 20 20 21 21 20 20 15 16 16 18 18 18 18 19 18 19 18 16 14 13 7 4 5 5 4 4 4 6 7 8 9

GFSMW_925_spd_198.txt.gz
Wind_Speed
11 20 27 40 40 36 38 39 40 41 39 37 39 39 42 43 41 38 35 33 29 29 29 29 30 29 30 29 26 26 28 30 32 29 25 18 19 18 17 17 19 18 17
9 8 11 9 31 37 42 41 41 40 45 41 42 32 31 34 41 37 34 32 29 27 26 29 30 29 27 29 30 30 29 30 36 18 21 4 7 13 18 18 17 19 20
7 9 11 19 22 16 35 41 44 46 48 41 35 30 29 28 30 34 35 33 29 27 22 23 25 23 26 26 29 31 28 29 30 39 10 3 4 9 10 18 21 21 18
8 10 13 20 25 28 20 37 41 40 41 38 34 36 33 25 25 38 36 32 29 28 24 23 24 25 26 27 26 25 27 32 29 35 12 9 19 4 3 10 17 19 19
9 11 14 22 30 36 15 24 26 33 38 43 38 36 28 24 29 32 34 30 28 27 25 24 24 24 24 25 26 24 24 22 29 20 13 14 18 16 7 4 8 16 17
12 13 19 26 31 37 25 3 21 24 30 33 35 39 34 31 30 30 35 34 32 27 24 24 24 23 22 21 20 20 20 22 24 17 16 17 7 8 7 4 9 14 16
16 16 15 15 25 31 30 19 2 14 27 33 37 38 38 41 42 44 38 37 33 29 29 27 26 24 21 17 14 13 14 17 19 17 14 14 11 17 12 19 10 5 14
10 13 17 20 20 25 27 24 11 6 16 25 31 33 37 39 36 37 35 33 35 34 31 29 26 23 20 18 15 14 13 13 14 14 13 13 13 14 22 17 18 5 2
5 5 6 14 17 20 21 22 20 11 7 14 19 22 18 24 29 32 35 36 35 36 33 31 29 23 18 15 16 17 17 15 15 14 13 13 13 11 12 22 28 18 4
4 3 1 1 2 7 11 13 15 13 10 7 12 23 29 28 31 33 34 37 37 36 36 33 28 25 19 18 15 17 16 17 15 14 12 10 9 7 9 13 17 13 9
8 6 4 8 6 1 4 6 8 12 8 4 7 12 16 29 35 32 36 38 39 39 36 33 29 27 24 23 22 19 16 9 7 6 8 10 11 14 14 14 14 14 17
8 8 7 10 10 11 5 5 3 4 6 3 7 11 17 20 27 33 34 38 41 37 36 31 29 27 27 24 21 18 14 14 14 15 16 17 15 14 13 11 12 12 10
12 11 7 8 14 17 13 9 6 6 5 5 9 11 14 17 15 19 27 30 35 35 34 32 30 29 24 22 20 18 19 17 18 18 18 17 17 16 16 15 14 11 10
15 13 10 12 12 12 13 9 8 9 8 9 11 14 18 20 22 24 26 28 29 28 28 27 25 23 23 21 17 13 14 17 17 17 17 18 16 16 15 14 12 12 13
20 16 12 12 12 17 19 14 11 13 13 13 15 17 19 22 23 23 24 24 24 24 24 23 22 22 21 19 21 24 21 19 19 16 16 14 12 12 11 10 9 9 12
24 21 15 10 12 20 16 14 17 15 17 16 16 18 18 19 22 23 24 24 24 24 24 25 24 23 22 22 21 20 20 18 19 18 14 12 10 10 10 10 10 8 10
18 16 11 11 18 20 21 17 18 17 17 16 17 18 19 20 22 23 24 23 22 22 21 20 22 22 20 20 20 20 18 22 19 16 16 12 11 12 12 11 11 10 8
7 2 5 9 17 27 29 23 25 23 21 18 18 20 21 22 22 23 24 26 26 24 24 23 22 20 20 19 18 20 21 19 16 16 17 13 13 10 9 10 11 10 7
4 7 10 9 18 20 21 23 26 26 22 20 24 23 25 24 24 23 23 22 24 25 26 25 25 24 22 18 17 20 20 21 19 19 16 13 11 8 9 11 12 13 9
11 12 15 17 7 14 23 21 21 23 22 24 26 26 26 27 27 25 25 27 25 22 25 25 24 20 23 17 17 19 24 23 21 18 16 12 9 9 11 12 12 10 6
2 9 12 14 12 15 21 19 21 22 22 25 23 25 25 26 26 29 28 29 27 24 24 23 19 17 24 22 15 22 27 26 23 22 17 13 9 8 8 9 9 8 6
8 12 13 14 12 10 23 17 15 13 16 18 21 23 24 25 26 27 26 28 27 26 24 21 17 17 23 21 15 22 24 22 21 19 16 13 9 7 6 7 6 8 8
7 11 16 11 9 10 12 14 13 14 16 19 21 22 24 25 28 28 27 26 27 23 21 19 18 18 21 19 16 18 21 19 17 16 14 12 8 7 8 9 8 7 5
11 14 16 12 7 4 5 9 12 12 12 17 17 19 22 23 25 26 28 26 25 22 21 20 18 20 22 22 20 20 19 17 14 15 14 10 9 10 9 9 7 6 4
11 17 16 14 14 10 7 7 8 10 14 14 16 18 20 24 24 22 24 25 24 28 24 23 25 24 23 26 24 21 19 18 17 17 14 13 13 12 10 10 9 8 8
14 12 14 17 19 16 11 11 11 13 15 15 16 18 17 20 21 23 19 20 25 23 22 23 24 21 18 19 21 21 18 17 18 17 17 17 15 14 12 11 10 9 7

GFSMW_925_spd_204.txt.gz
Wind_Speed
7 18 23 29 25 12 4 14 20 25 28 27 27 28 32 32 38 40 40 41 39 37 37 34 33 31 32 31 29 27 29 28 30 30 18 12 9 11 13 13 13 13 12
11 15 22 26 26 22 19 12 14 25 29 29 27 24 21 28 36 38 40 40 42 41 40 40 38 36 36 36 37 38 32 25 36 17 14 3 4 7 12 14 15 15 14
6 7 10 17 25 27 27 22 18 15 32 32 25 24 23 24 27 36 38 39 40 42 42 42 39 37 38 41 42 43 44 29 37 34 11 3 4 8 9 16 16 16 16
4 3 5 13 19 20 22 24 22 20 15 26 24 26 25 24 30 32 36 37 40 42 42 42 41 41 42 42 43 43 41 32 33 32 13 9 19 3 3 8 15 16 15
4 6 6 9 15 19 21 22 20 16 6 19 28 29 27 26 24 29 30 35 38 41 42 43 43 44 46 46 45 43 42 36 35 31 13 14 11 14 5 3 6 14 14
6 7 13 17 20 21 21 22 20 16 12 9 14 16 25 24 26 26 29 33 37 39 42 43 42 43 44 45 45 45 45 43 35 38 30 22 10 9 6 3 6 11 12
6 7 8 11 15 17 18 19 18 17 15 14 15 19 19 22 25 26 26 25 29 33 39 38 38 38 36 32 31 28 34 35 34 39 28 21 16 21 13 13 9 5 5
4 6 6 9 12 18 17 16 17 19 18 16 15 18 19 22 23 26 25 25 23 24 29 30 25 23 25 22 19 22 24 24 23 27 30 24 19 17 21 17 22 3 3
9 10 11 18 22 26 25 20 19 18 18 17 18 17 19 22 23 24 24 24 24 22 16 15 14 16 15 20 26 29 30 24 20 18 19 19 17 18 20 22 31 22 4
8 9 8 19 26 26 28 24 19 16 14 12 12 15 17 19 25 28 29 28 27 28 28 29 30 28 30 29 26 27 27 30 29 25 20 18 18 16 19 23 25 16 17
7 8 8 18 23 29 30 29 25 18 15 11 9 10 13 13 18 24 26 29 30 29 30 32 32 33 30 31 32 30 25 25 25 25 24 21 21 21 22 26 24 19 13
8 9 10 17 22 25 28 29 27 20 14 11 9 9 11 14 15 19 22 27 28 29 32 33 33 32 36 34 28 27 24 24 25 24 24 24 20 19 18 19 17 13 11
12 11 9 9 19 23 27 27 27 22 13 8 4 1 4 7 10 13 15 19 21 24 28 31 35 36 34 31 29 25 25 23 24 24 20 18 16 15 13 13 14 17 19
15 14 12 10 20 24 26 27 26 19 12 6 4 3 4 1 6 7 9 13 15 20 19 23 29 32 32 28 25 26 25 23 20 17 16 15 13 13 15 14 15 17 18
16 16 16 15 22 24 28 24 22 18 13 11 10 7 6 2 3 6 9 12 16 21 24 24 23 24 27 25 26 26 25 20 18 15 13 12 12 13 13 16 16 18 22
14 15 15 17 15 27 25 18 19 19 17 13 10 9 10 4 4 6 9 11 16 20 23 24 23 23 22 23 22 21 21 20 19 19 17 17 18 17 13 10 10 13 22
13 14 17 17 22 27 22 14 21 18 15 13 11 10 10 9 11 11 10 12 14 17 18 20 22 22 19 18 20 20 21 22 22 23 23 21 19 16 17 14 12 11 13
13 15 13 19 23 19 10 16 22 19 15 12 11 11 10 10 11 11 12 13 13 15 16 15 14 14 14 16 18 21 22 23 24 23 19 16 17 17 18 18 15 12 12
11 14 18 19 20 12 6 8 10 14 14 12 9 12 12 12 11 12 13 15 16 16 15 14 14 16 17 15 17 21 24 22 18 16 14 15 17 17 18 20 20 18 17
16 19 20 17 16 7 5 9 8 9 7 8 10 12 11 11 12 12 13 13 14 14 14 15 15 18 21 18 19 19 20 22 21 17 14 14 15 15 17 18 20 20 19
15 20 21 15 12 9 8 10 12 9 7 9 9 9 9 10 11 12 14 15 15 15 16 17 16 17 17 17 15 16 19 20 22 22 19 17 15 12 14 14 16 16 19
15 17 17 17 9 8 10 9 8 7 8 9 9 9 9 11 11 12 14 16 18 20 20 20 17 16 16 17 19 20 19 22 23 23 21 18 15 14 13 15 13 13 15
13 15 14 15 8 8 9 9 7 8 9 9 10 10 10 12 13 17 20 20 20 19 18 19 19 18 18 20 19 19 19 22 18 21 19 16 15 14 14 12 12 12 14
9 11 5 10 12 9 8 8 13 11 11 13 12 11 12 12 13 16 19 20 21 19 18 17 17 20 21 22 22 20 19 17 14 19 19 17 15 12 14 14 12 13 12
14 14 10 10 11 7 3 5 8 13 12 11 10 10 8 10 13 13 16 20 20 23 25 22 24 23 22 24 24 23 21 20 21 22 19 16 15 15 15 13 14 13 11
15 16 13 8 6 9 6 5 6 8 11 10 11 12 12 14 14 15 13 14 16 17 17 18 21 20 18 22 22 19 17 19 22 21 22 20 17 18 19 18 16 14 12

GFSMW_925_spd_210.txt.gz
Wind_Speed
9 12 15 16 17 16 13 9 4 3 7 10 13 14 15 20 24 23 21 22 21 21 26 33 24 22 23 23 24 23 22 20 20 19 14 11 10 12 14 15 14 13 12
10 11 14 15 16 16 15 14 11 9 3 7 9 9 6 11 15 19 25 26 26 25 28 33 31 26 25 25 25 26 24 23 25 20 19 8 9 14 14 14 15 15 13
10 10 12 13 13 14 14 14 13 12 12 5 4 7 12 13 12 15 20 23 25 28 30 32 31 28 29 30 31 31 30 27 28 25 15 7 8 18 15 16 15 16 15
9 8 9 10 10 10 10 11 12 13 13 11 3 5 9 11 11 13 15 17 20 22 25 33 33 35 31 30 33 34 35 32 30 31 31 12 9 8 7 19 17 16 15
9 8 7 7 9 10 11 12 12 12 12 11 8 8 11 14 14 15 15 16 16 21 24 28 35 37 35 35 34 35 36 36 31 33 32 21 18 17 10 11 16 16 18
8 6 5 5 8 9 11 11 12 11 12 12 11 9 10 12 13 16 17 16 15 15 18 25 29 36 38 34 36 36 36 36 35 33 32 31 25 17 11 7 18 17 17
5 4 5 6 7 9 9 9 10 12 12 12 12 12 13 13 15 15 16 16 16 17 16 19 24 33 38 38 37 37 38 42 37 35 35 31 29 20 23 14 18 10 10
4 3 4 6 8 9 9 11 13 14 14 13 13 14 13 14 15 15 16 18 19 18 18 19 21 27 29 37 40 39 40 40 42 39 37 32 28 23 22 22 25 10 7
3 2 3 5 7 8 9 9 10 12 13 14 15 16 16 15 15 16 15 17 18 19 18 21 24 25 28 33 39 38 38 35 36 33 34 32 31 31 28 31 28 15 8
1 1 3 5 8 9 10 10 12 15 17 16 15 15 16 16 15 14 15 16 17 17 18 19 21 27 29 32 37 35 36 37 36 36 38 36 35 33 28 25 24 25 19
2 4 6 8 8 9 11 13 15 17 20 19 17 17 17 16 14 13 13 13 14 16 18 20 24 28 31 33 35 35 36 39 36 38 41 39 40 36 33 30 28 23 19
4 6 8 10 12 14 16 18 20 22 21 19 19 18 16 16 14 12 11 12 13 15 18 20 22 25 26 29 33 32 34 37 36 37 34 32 30 26 27 27 27 23 23
6 6 6 8 11 13 16 19 20 21 20 20 20 17 16 13 12 9 9 10 11 12 13 16 19 21 25 27 28 28 31 31 31 31 31 29 27 24 24 22 21 21 19
5 6 7 7 12 14 17 18 20 20 21 22 18 15 12 8 6 6 7 7 8 9 9 10 12 15 17 17 20 17 14 17 19 18 17 21 22 24 24 23 23 23 22
6 7 9 9 14 17 19 19 20 19 20 15 11 8 5 4 3 3 4 5 5 5 7 8 8 3 3 7 11 15 16 13 20 19 17 19 14 18 21 21 20 20 19
6 5 8 9 13 16 19 19 20 20 15 9 4 6 5 3 2 2 1 2 3 4 1 2 2 4 5 4 6 10 11 11 16 19 15 15 16 14 15 15 16 16 17
3 5 8 10 14 17 18 19 19 16 9 4 6 6 6 5 3 2 1 1 1 2 3 3 2 6 8 4 1 2 7 10 12 16 18 17 14 13 15 13 13 13 12
3 5 7 12 16 18 21 18 14 11 5 5 6 7 6 5 5 5 4 3 4 4 5 7 4 3 3 3 7 10 14 18 16 15 14 19 16 13 15 14 14 13 10
4 6 9 13 17 19 21 16 12 5 5 6 6 7 7 8 9 9 8 7 7 7 6 6 7 6 6 4 8 13 14 17 15 12 13 16 13 13 14 14 14 15 15
7 8 10 13 15 18 18 13 13 6 8 8 7 10 12 12 11 10 11 11 11 10 9 8 7 7 8 7 10 13 14 16 14 13 13 13 13 13 15 14 14 16 15
10 10 12 13 13 14 14 13 10 9 11 11 12 15 14 12 11 11 9 10 10 10 10 9 8 7 7 9 11 13 12 14 13 12 12 12 15 15 14 13 11 15 16
13 14 14 13 11 9 9 9 9 8 8 11 14 15 14 13 12 12 11 10 10 10 11 11 11 9 8 9 9 11 11 12 12 12 11 15 14 13 14 12 17 21 17
11 11 11 10 9 6 6 7 6 5 8 10 11 13 12 12 13 12 11 9 9 8 9 10 10 11 11 11 10 10 12 13 13 13 16 16 15 14 11 15 18 15 10
10 10 11 12 14 12 10 9 6 3 7 9 10 12 13 13 12 9 8 8 9 10 11 11 11 11 14 14 13 15 15 14 17 19 18 16 14 13 16 14 11 8 7
13 13 13 13 14 13 11 10 7 9 8 11 11 12 12 13 12 9 7 6 7 9 10 12 13 15 14 16 18 19 18 18 21 21 16 12 13 14 11 9 8 8 8
13 13 13 13 12 13 12 12 11 12 12 11 12 12 9 9 9 8 6 5 4 7 8 10 15 15 14 18 19 19 18 20 23 15 13 11 11 12 12 12 12 12 11